User: anonymous   Login
Location: Curupao
(10.4996°N, 66.6442°W)
Time: 19:05:29
(UTC+00:00)
Language:

ARIANE 5 R/B - Orbit

View from above orbital plane
View from above orbital plane
View from above satellite
View from above satellite

Ground track
Ground track

The orbit data is extracted from the following two-line orbital elements,

1 27387U 02009B   24198.55160244  .00000259  00000-0  10356-3 0  9993
2 27387  98.7989 189.2834 0032946  35.6905 324.6474 14.36417986172746
Epoch (UTC): 16 July 2024 13:14:18
Eccentricity: 0.0032946
inclination: 98.7989°
perigee height: 747 km
apogee height: 794 km
right ascension of ascending node: 189.2834°
argument of perigee: 35.6905°
revolutions per day: 14.36417986
mean anomaly at epoch: 324.6474°
orbit number at epoch: 17274

The dashed part of the orbit path shows where the satellite is in the earth's shadow,  

DLR